﻿測定場所 (Monitoring sites),日付 (Measurement date),時間 (Measurement time),線量率 最大値 (max) μGy/h,線量率 最小値 (min) μGy/h,線量率 平均値 (average) μGy/h,
小平 (Kodaira),2011-12-18,23:01～24:00,0.0452,0.0373,0.0410,
小平 (Kodaira),2011-12-18,22:01～23:00,0.0435,0.0386,0.0410,
小平 (Kodaira),2011-12-18,21:01～22:00,0.0438,0.0367,0.0411,
小平 (Kodaira),2011-12-18,20:01～21:00,0.0432,0.0378,0.0409,
小平 (Kodaira),2011-12-18,19:01～20:00,0.0437,0.0375,0.0408,
小平 (Kodaira),2011-12-18,18:01～19:00,0.0439,0.0372,0.0407,
小平 (Kodaira),2011-12-18,17:01～18:00,0.0431,0.0367,0.0405,
小平 (Kodaira),2011-12-18,16:01～17:00,0.0440,0.0367,0.0405,
小平 (Kodaira),2011-12-18,15:01～16:00,0.0444,0.0377,0.0410,
小平 (Kodaira),2011-12-18,14:01～15:00,0.0437,0.0381,0.0409,
小平 (Kodaira),2011-12-18,13:01～14:00,0.0446,0.0387,0.0412,
小平 (Kodaira),2011-12-18,12:01～13:00,0.0452,0.0388,0.0418,
小平 (Kodaira),2011-12-18,11:01～12:00,0.0454,0.0387,0.0422,
小平 (Kodaira),2011-12-18,10:01～11:00,0.0467,0.0397,0.0428,
小平 (Kodaira),2011-12-18,09:01～10:00,0.0453,0.0385,0.0424,
小平 (Kodaira),2011-12-18,08:01～09:00,0.0462,0.0385,0.0425,
小平 (Kodaira),2011-12-18,07:01～08:00,0.0473,0.0399,0.0427,
小平 (Kodaira),2011-12-18,06:01～07:00,0.0479,0.0386,0.0434,
小平 (Kodaira),2011-12-18,05:01～06:00,0.0458,0.0405,0.0432,
小平 (Kodaira),2011-12-18,04:01～05:00,0.0462,0.0389,0.0426,
小平 (Kodaira),2011-12-18,03:01～04:00,0.0468,0.0400,0.0431,
小平 (Kodaira),2011-12-18,02:01～03:00,0.0473,0.0408,0.0436,
小平 (Kodaira),2011-12-18,01:01～02:00,0.0468,0.0399,0.0428,
小平 (Kodaira),2011-12-18,00:01～01:00,0.0454,0.0397,0.0423,
小平 (Kodaira),2011-12-17,23:01～24:00,0.0442,0.0392,0.0417,
小平 (Kodaira),2011-12-17,22:01～23:00,0.0459,0.0390,0.0419,
小平 (Kodaira),2011-12-17,21:01～22:00,0.0452,0.0376,0.0414,
小平 (Kodaira),2011-12-17,20:01～21:00,0.0438,0.0370,0.0401,
小平 (Kodaira),2011-12-17,19:01～20:00,0.0438,0.0371,0.0406,
小平 (Kodaira),2011-12-17,18:01～19:00,0.0432,0.0367,0.0401,
小平 (Kodaira),2011-12-17,17:01～18:00,0.0431,0.0381,0.0403,
小平 (Kodaira),2011-12-17,16:01～17:00,0.0441,0.0378,0.0406,
小平 (Kodaira),2011-12-17,15:01～16:00,0.0432,0.0373,0.0407,
小平 (Kodaira),2011-12-17,14:01～15:00,0.0440,0.0372,0.0409,
小平 (Kodaira),2011-12-17,13:01～14:00,0.0441,0.0390,0.0414,
小平 (Kodaira),2011-12-17,12:01～13:00,0.0444,0.0393,0.0420,
小平 (Kodaira),2011-12-17,11:01～12:00,0.0440,0.0392,0.0418,
小平 (Kodaira),2011-12-17,10:01～11:00,0.0462,0.0392,0.0422,
小平 (Kodaira),2011-12-17,09:01～10:00,0.0461,0.0395,0.0432,
小平 (Kodaira),2011-12-17,08:01～09:00,0.0467,0.0389,0.0436,
小平 (Kodaira),2011-12-17,07:01～08:00,0.0458,0.0394,0.0427,
小平 (Kodaira),2011-12-17,06:01～07:00,0.0451,0.0393,0.0418,
小平 (Kodaira),2011-12-17,05:01～06:00,0.0453,0.0393,0.0422,
小平 (Kodaira),2011-12-17,04:01～05:00,0.0444,0.0391,0.0419,
小平 (Kodaira),2011-12-17,03:01～04:00,0.0448,0.0390,0.0419,
小平 (Kodaira),2011-12-17,02:01～03:00,0.0440,0.0380,0.0415,
小平 (Kodaira),2011-12-17,01:01～02:00,0.0444,0.0371,0.0409,
小平 (Kodaira),2011-12-17,00:01～01:00,0.0442,0.0369,0.0409,
小平 (Kodaira),2011-12-16,23:01～24:00,0.0442,0.0383,0.0410,
小平 (Kodaira),2011-12-16,22:01～23:00,0.0437,0.0373,0.0408,
小平 (Kodaira),2011-12-16,21:01～22:00,0.0440,0.0373,0.0409,
小平 (Kodaira),2011-12-16,20:01～21:00,0.0442,0.0370,0.0404,
小平 (Kodaira),2011-12-16,19:01～20:00,0.0433,0.0377,0.0408,
小平 (Kodaira),2011-12-16,18:01～19:00,0.0430,0.0381,0.0406,
小平 (Kodaira),2011-12-16,17:01～18:00,0.0431,0.0375,0.0405,
小平 (Kodaira),2011-12-16,16:01～17:00,0.0431,0.0389,0.0406,
小平 (Kodaira),2011-12-16,15:01～16:00,0.0444,0.0377,0.0415,
小平 (Kodaira),2011-12-16,14:01～15:00,0.0452,0.0383,0.0416,
小平 (Kodaira),2011-12-16,13:01～14:00,0.0447,0.0384,0.0418,
小平 (Kodaira),2011-12-16,12:01～13:00,0.0452,0.0389,0.0417,
小平 (Kodaira),2011-12-16,11:01～12:00,0.0454,0.0396,0.0423,
小平 (Kodaira),2011-12-16,10:01～11:00,0.0460,0.0389,0.0425,
小平 (Kodaira),2011-12-16,09:01～10:00,0.0468,0.0390,0.0425,
小平 (Kodaira),2011-12-16,08:01～09:00,0.0451,0.0387,0.0422,
小平 (Kodaira),2011-12-16,07:01～08:00,0.0461,0.0393,0.0420,
小平 (Kodaira),2011-12-16,06:01～07:00,0.0445,0.0385,0.0417,
小平 (Kodaira),2011-12-16,05:01～06:00,0.0453,0.0389,0.0419,
小平 (Kodaira),2011-12-16,04:01～05:00,0.0446,0.0392,0.0421,
小平 (Kodaira),2011-12-16,03:01～04:00,0.0465,0.0388,0.0422,
小平 (Kodaira),2011-12-16,02:01～03:00,0.0454,0.0390,0.0422,
小平 (Kodaira),2011-12-16,01:01～02:00,0.0448,0.0381,0.0419,
小平 (Kodaira),2011-12-16,00:01～01:00,0.0446,0.0388,0.0416,
小平 (Kodaira),2011-12-15,23:01～24:00,0.0447,0.0386,0.0416,
小平 (Kodaira),2011-12-15,22:01～23:00,0.0445,0.0380,0.0416,
小平 (Kodaira),2011-12-15,21:01～22:00,0.0452,0.0384,0.0419,
小平 (Kodaira),2011-12-15,20:01～21:00,0.0444,0.0381,0.0412,
小平 (Kodaira),2011-12-15,19:01～20:00,0.0439,0.0382,0.0411,
小平 (Kodaira),2011-12-15,18:01～19:00,0.0450,0.0390,0.0414,
小平 (Kodaira),2011-12-15,17:01～18:00,0.0441,0.0377,0.0411,
小平 (Kodaira),2011-12-15,16:01～17:00,0.0431,0.0377,0.0410,
小平 (Kodaira),2011-12-15,15:01～16:00,0.0444,0.0374,0.0411,
小平 (Kodaira),2011-12-15,14:01～15:00,0.0440,0.0377,0.0406,
小平 (Kodaira),2011-12-15,13:01～14:00,0.0456,0.0383,0.0419,
小平 (Kodaira),2011-12-15,12:01～13:00,0.0451,0.0391,0.0420,
小平 (Kodaira),2011-12-15,11:01～12:00,0.0469,0.0405,0.0428,
小平 (Kodaira),2011-12-15,10:01～11:00,0.0465,0.0408,0.0435,
小平 (Kodaira),2011-12-15,09:01～10:00,0.0471,0.0399,0.0434,
小平 (Kodaira),2011-12-15,08:01～09:00,0.0470,0.0406,0.0433,
小平 (Kodaira),2011-12-15,07:01～08:00,0.0473,0.0409,0.0439,
小平 (Kodaira),2011-12-15,06:01～07:00,0.0458,0.0401,0.0428,
小平 (Kodaira),2011-12-15,05:01～06:00,0.0470,0.0383,0.0425,
小平 (Kodaira),2011-12-15,04:01～05:00,0.0457,0.0396,0.0430,
小平 (Kodaira),2011-12-15,03:01～04:00,0.0470,0.0404,0.0430,
小平 (Kodaira),2011-12-15,02:01～03:00,0.0462,0.0403,0.0428,
小平 (Kodaira),2011-12-15,01:01～02:00,0.0466,0.0380,0.0423,
小平 (Kodaira),2011-12-15,00:01～01:00,0.0468,0.0387,0.0428,
小平 (Kodaira),2011-12-14,23:01～24:00,0.0455,0.0395,0.0425,
小平 (Kodaira),2011-12-14,22:01～23:00,0.0448,0.0390,0.0422,
小平 (Kodaira),2011-12-14,21:01～22:00,0.0445,0.0384,0.0416,
小平 (Kodaira),2011-12-14,20:01～21:00,0.0445,0.0384,0.0412,
小平 (Kodaira),2011-12-14,19:01～20:00,0.0446,0.0370,0.0415,
小平 (Kodaira),2011-12-14,18:01～19:00,0.0437,0.0385,0.0412,
小平 (Kodaira),2011-12-14,17:01～18:00,0.0446,0.0385,0.0415,
小平 (Kodaira),2011-12-14,16:01～17:00,0.0449,0.0386,0.0415,
小平 (Kodaira),2011-12-14,15:01～16:00,0.0455,0.0384,0.0413,
小平 (Kodaira),2011-12-14,14:01～15:00,0.0450,0.0380,0.0410,
小平 (Kodaira),2011-12-14,13:01～14:00,0.0449,0.0385,0.0415,
小平 (Kodaira),2011-12-14,12:01～13:00,0.0480,0.0385,0.0421,
小平 (Kodaira),2011-12-14,11:01～12:00,0.0460,0.0388,0.0416,
小平 (Kodaira),2011-12-14,10:01～11:00,0.0454,0.0380,0.0424,
小平 (Kodaira),2011-12-14,09:01～10:00,0.0446,0.0386,0.0425,
小平 (Kodaira),2011-12-14,08:01～09:00,0.0461,0.0402,0.0429,
小平 (Kodaira),2011-12-14,07:01～08:00,0.0468,0.0385,0.0419,
小平 (Kodaira),2011-12-14,06:01～07:00,0.0468,0.0396,0.0425,
小平 (Kodaira),2011-12-14,05:01～06:00,0.0453,0.0398,0.0426,
小平 (Kodaira),2011-12-14,04:01～05:00,0.0458,0.0394,0.0424,
小平 (Kodaira),2011-12-14,03:01～04:00,0.0450,0.0388,0.0413,
小平 (Kodaira),2011-12-14,02:01～03:00,0.0436,0.0383,0.0412,
小平 (Kodaira),2011-12-14,01:01～02:00,0.0439,0.0375,0.0412,
小平 (Kodaira),2011-12-14,00:01～01:00,0.0447,0.0375,0.0412,
小平 (Kodaira),2011-12-13,23:01～24:00,0.0455,0.0371,0.0416,
小平 (Kodaira),2011-12-13,22:01～23:00,0.0435,0.0384,0.0409,
小平 (Kodaira),2011-12-13,21:01～22:00,0.0436,0.0366,0.0410,
小平 (Kodaira),2011-12-13,20:01～21:00,0.0437,0.0379,0.0409,
小平 (Kodaira),2011-12-13,19:01～20:00,0.0439,0.0382,0.0411,
小平 (Kodaira),2011-12-13,18:01～19:00,0.0443,0.0386,0.0414,
小平 (Kodaira),2011-12-13,17:01～18:00,0.0437,0.0376,0.0405,
小平 (Kodaira),2011-12-13,16:01～17:00,0.0442,0.0373,0.0408,
小平 (Kodaira),2011-12-13,15:01～16:00,0.0435,0.0380,0.0408,
小平 (Kodaira),2011-12-13,14:01～15:00,0.0442,0.0378,0.0412,
小平 (Kodaira),2011-12-13,13:01～14:00,0.0437,0.0381,0.0412,
小平 (Kodaira),2011-12-13,12:01～13:00,0.0451,0.0394,0.0412,
小平 (Kodaira),2011-12-13,11:01～12:00,0.0441,0.0390,0.0415,
小平 (Kodaira),2011-12-13,10:01～11:00,0.0450,0.0373,0.0415,
小平 (Kodaira),2011-12-13,09:01～10:00,0.0446,0.0382,0.0413,
小平 (Kodaira),2011-12-13,08:01～09:00,0.0448,0.0386,0.0416,
小平 (Kodaira),2011-12-13,07:01～08:00,0.0443,0.0375,0.0418,
小平 (Kodaira),2011-12-13,06:01～07:00,0.0454,0.0385,0.0415,
小平 (Kodaira),2011-12-13,05:01～06:00,0.0458,0.0385,0.0417,
小平 (Kodaira),2011-12-13,04:01～05:00,0.0442,0.0381,0.0418,
小平 (Kodaira),2011-12-13,03:01～04:00,0.0457,0.0387,0.0425,
小平 (Kodaira),2011-12-13,02:01～03:00,0.0468,0.0389,0.0427,
小平 (Kodaira),2011-12-13,01:01～02:00,0.0470,0.0390,0.0428,
小平 (Kodaira),2011-12-13,00:01～01:00,0.0456,0.0371,0.0422,
小平 (Kodaira),2011-12-12,23:01～24:00,0.0461,0.0398,0.0418,
小平 (Kodaira),2011-12-12,22:01～23:00,0.0446,0.0394,0.0420,
小平 (Kodaira),2011-12-12,21:01～22:00,0.0453,0.0385,0.0417,
小平 (Kodaira),2011-12-12,20:01～21:00,0.0460,0.0395,0.0420,
小平 (Kodaira),2011-12-12,19:01～20:00,0.0446,0.0382,0.0413,
小平 (Kodaira),2011-12-12,18:01～19:00,0.0447,0.0377,0.0409,
小平 (Kodaira),2011-12-12,17:01～18:00,0.0450,0.0377,0.0408,
小平 (Kodaira),2011-12-12,16:01～17:00,0.0438,0.0377,0.0409,
小平 (Kodaira),2011-12-12,15:01～16:00,0.0457,0.0379,0.0408,
小平 (Kodaira),2011-12-12,14:01～15:00,0.0446,0.0382,0.0411,
小平 (Kodaira),2011-12-12,13:01～14:00,0.0467,0.0387,0.0415,
小平 (Kodaira),2011-12-12,12:01～13:00,0.0445,0.0385,0.0414,
小平 (Kodaira),2011-12-12,11:01～12:00,0.0455,0.0383,0.0421,
小平 (Kodaira),2011-12-12,10:01～11:00,0.0459,0.0388,0.0421,
小平 (Kodaira),2011-12-12,09:01～10:00,0.0452,0.0390,0.0421,
小平 (Kodaira),2011-12-12,08:01～09:00,0.0443,0.0392,0.0420,
小平 (Kodaira),2011-12-12,07:01～08:00,0.0457,0.0382,0.0422,
小平 (Kodaira),2011-12-12,06:01～07:00,0.0459,0.0405,0.0428,
小平 (Kodaira),2011-12-12,05:01～06:00,0.0468,0.0399,0.0429,
小平 (Kodaira),2011-12-12,04:01～05:00,0.0457,0.0399,0.0429,
小平 (Kodaira),2011-12-12,03:01～04:00,0.0465,0.0389,0.0428,
小平 (Kodaira),2011-12-12,02:01～03:00,0.0454,0.0394,0.0425,
小平 (Kodaira),2011-12-12,01:01～02:00,0.0455,0.0398,0.0424,
小平 (Kodaira),2011-12-12,00:01～01:00,0.0455,0.0396,0.0425,
